TimeIST,TemperatureF,Dew PointF,Humidity,Sea Level PressureIn,VisibilityMPH,Wind Direction,Wind SpeedMPH,Gust SpeedMPH,PrecipitationIn,Events,Conditions,WindDirDegrees,DateUTC
12:00 AM,75.2,60.8,61,30.04,1.9,Calm,Calm,-,N/A,,Haze,0,2012-10-21 18:30:00
1:00 AM,73.4,60.8,65,30.04,1.9,Calm,Calm,-,N/A,,Haze,0,2012-10-21 19:30:00
2:00 AM,75.2,60.8,61,30.01,1.9,ENE,5.8,-,N/A,,Haze,60,2012-10-21 20:30:00
2:30 AM,75,60,51,29.96,1,,1.2,,,,Haze,,2012-10-21 21:00:00
3:00 AM,75.2,60.8,61,30.01,1.9,Variable,3.5,-,N/A,,Haze,0,2012-10-21 21:30:00
5:30 AM,71.6,60.8,69,30.01,1.9,East,4.6,-,N/A,,Haze,80,2012-10-22 00:00:00
6:00 AM,73.4,60.8,65,30.04,1.9,East,5.8,-,N/A,,Haze,80,2012-10-22 00:30:00
8:00 AM,75.2,60.8,61,30.06,1.6,East,6.9,-,N/A,,Smoke,80,2012-10-22 02:30:00
9:00 AM,78.8,59.0,51,30.09,1.2,East,8.1,-,N/A,,Smoke,90,2012-10-22 03:30:00
9:30 AM,78.8,59.0,51,30.09,1.2,East,8.1,-,N/A,,Smoke,80,2012-10-22 04:00:00
10:00 AM,80.6,59.0,48,30.09,1.2,East,8.1,-,N/A,,Smoke,100,2012-10-22 04:30:00
10:30 AM,82.4,59.0,45,30.09,1.2,East,6.9,-,N/A,,Smoke,100,2012-10-22 05:00:00
11:00 AM,84.2,59.0,42,30.09,1.6,East,5.8,-,N/A,,Smoke,100,2012-10-22 05:30:00
11:30 AM,84,60,33,30.01,1,,3.5,,,,Smoke,,2012-10-22 06:00:00
11:30 AM,86.0,59.0,40,30.06,1.6,Variable,4.6,-,N/A,,Smoke,0,2012-10-22 06:00:00
1:00 PM,87.8,59.0,38,30.04,1.9,Variable,2.3,-,N/A,,Smoke,0,2012-10-22 07:30:00
2:00 PM,89.6,59.0,36,30.01,2.5,Variable,2.3,-,N/A,,Scattered Clouds,0,2012-10-22 08:30:00
2:30 PM,90,56,21,29.90,2,SSW,2.3,,,,Haze,200,2012-10-22 09:00:00
3:00 PM,87.8,55.4,33,29.98,2.5,Variable,2.3,-,N/A,,Scattered Clouds,0,2012-10-22 09:30:00
4:00 PM,89.6,55.4,31,29.98,2.5,Variable,1.2,-,N/A,,Scattered Clouds,0,2012-10-22 10:30:00
5:00 PM,-9999,-9999,N/A,29.98,2.5,Variable,1.2,-,N/A,,Haze,0,2012-10-22 11:30:00
7:00 PM,80.6,59.0,48,30.01,1.9,NE,8.1,-,N/A,,Haze,40,2012-10-22 13:30:00
8:00 PM,78.8,59.0,51,30.01,1.9,NNE,4.6,-,N/A,,Haze,30,2012-10-22 14:30:00
8:30 PM,80,59,39,29.94,1,SE,6.9,,,,Haze,140,2012-10-22 15:00:00
9:00 PM,77.0,59.0,54,30.04,1.9,Calm,Calm,-,N/A,,Haze,0,2012-10-22 15:30:00
10:00 PM,77.0,59.0,54,30.04,1.9,Calm,Calm,-,N/A,,Haze,0,2012-10-22 16:30:00
11:00 PM,73.4,59.0,61,30.04,1.9,ENE,3.5,-,N/A,,Haze,70,2012-10-22 17:30:00
11:30 PM,74,57,46,29.96,1,NE,2.3,,,,Haze,50,2012-10-22 18:00:00